#timestamp,LO_Frequency,Hit,StdDev 
1508536815.8,286046998.5,N
1508536835.6,286047000.4,N
1508536855.5,286047001.1,N
1508536875.3,286047002.4,N
1508536895.1,286047000.6,N
1508536915.9,286046998.6,N
1508536935.7,286047000.5,N
1508536955.5,286047000.4,N
1508536975.4,286046995.2,Y
1508536995.2,286047002.4,P
1508537015.0,286047008.5,P
1508537015.9,286047008.5,N
1508537035.8,286047013.5,Y
1508537055.6,286047011.9,P
1508537075.4,286047018.8,P
1508537095.3,286047017.4,P
1508537115.1,286047023.2,Y
1508537116.0,286047023.2,P
1508537135.8,286047010.5,N
1508537155.7,286047009.6,N
1508537175.5,286047010.3,N
1508537195.3,286047010.4,N
1508537215.2,286047006.2,N
1508537235.9,286047006.3,N
1508537255.7,286047006.8,N
1508537275.6,286047006.9,N
1508537295.4,286047010.6,N
1508537315.2,286047013.8,N
1508537335.1,286047014.9,Y
1508537336.0,286047014.9,P
1508537355.8,286047005.4,N
1508537375.6,286047005.0,N
1508537395.5,286047005.8,N
1508537415.3,286047005.8,N
1508537435.1,286047001.6,N
1508537455.8,286047002.8,N
1508537475.7,286047001.8,N
1508537495.5,286046998.6,N
1508537515.3,286046999.5,N
1508537535.2,286046998.2,N
1508537555.0,286046999.0,N
1508537555.9,286046999.0,N
1508537575.7,286047000.8,N
1508537595.6,286047001.0,N
1508537615.4,286047002.3,N
1508537635.2,286047001.6,N
1508537655.1,286047004.7,N
1508537656.0,286047004.7,N
1508537675.8,286047003.5,N
1508537695.6,286047005.2,N
1508537715.5,286047004.8,N
1508537735.3,286047006.1,N
1508537755.1,286047008.1,N
1508537775.9,286047004.5,N
1508537795.7,286047007.3,N
1508537815.5,286047007.6,N
1508537835.4,286047005.3,N
1508537855.2,286047004.3,N
1508537875.0,286047002.7,N
1508537875.9,286047002.7,N
1508537895.8,286047002.7,N
1508537915.6,286047002.7,N
1508537935.4,286047004.4,N
1508537955.3,286047003.0,N
1508537975.1,286046998.3,N
1508537976.0,286046998.3,N
1508537995.8,286046997.1,N
1508538015.7,286046993.8,N
1508538035.5,286046988.8,Y
1508538055.3,286046986.8,P
1508538075.2,286046982.2,N
1508538095.9,286046979.5,N
1508538115.7,286046980.0,N
1508538135.5,286046976.2,N
1508538155.4,286046978.4,N
1508538175.2,286046976.0,N
1508538195.0,286046976.6,N
1508538195.9,286046976.6,N
1508538215.8,286046974.2,Y
1508538235.6,286046992.1,P
1508538255.5,286046992.5,N
1508538275.3,286046990.8,N
1508538295.1,286046990.9,N
1508538315.8,286046989.4,N
1508538335.7,286046987.6,Y
1508538355.5,286046999.3,P
1508538375.3,286047000.4,N
1508538395.2,286046998.1,N
1508538415.0,286047000.7,N
1508538415.9,286047000.7,N
1508538435.7,286046998.6,N
1508538455.6,286046998.2,N
1508538475.4,286047000.7,N
1508538495.2,286047000.7,N
1508538515.1,286046998.1,N
1508538516.0,286046998.1,N
1508538535.8,286047000.3,N
1508538555.6,286047000.0,N
1508538575.5,286047002.7,N
1508538595.3,286047000.2,N
1508538615.1,286047002.8,N
1508538635.9,286047000.0,N
1508538655.7,286047001.5,N
1508538675.5,286047006.7,N
1508538695.4,286047006.3,N
1508538715.2,286047003.3,N
1508538735.0,286047003.9,N
1508538735.9,286047003.9,N
1508538755.8,286047004.0,N
1508538775.6,286047001.7,N
1508538795.4,286047002.6,N
1508538815.3,286047002.1,N
1508538835.1,286046998.2,N
1508538836.0,286046998.2,N
1508538855.8,286047003.8,N
1508538875.7,286047008.9,Y
1508538895.5,286047006.9,P
1508538915.3,286047013.9,P
1508538935.2,286047014.9,N
1508538955.9,286047019.0,Y
1508538975.7,286047011.6,P
1508538995.6,286047012.9,P
1508539015.4,286047012.8,P
1508539035.2,286047018.2,Y
1508539055.1,286047008.5,P
1508539056.0,286047008.5,P
1508539075.8,286047006.4,P
1508539095.7,286047006.2,Y
1508539115.5,286046998.2,P
1508539135.3,286046998.2,N
1508539155.1,286046996.9,N
1508539175.9,286047000.8,N
1508539195.7,286047002.8,N
1508539215.5,286047000.4,N
1508539235.4,286047004.2,N
1508539255.2,286047002.7,N
1508539275.0,286047010.2,N
1508539275.9,286047010.2,N
1508539295.8,286047007.8,N
1508539315.6,286047007.4,N
1508539335.4,286047005.3,N
1508539355.3,286047005.0,N
1508539375.1,286047006.7,N
1508539376.0,286047006.7,N
1508539395.8,286047006.5,N
1508539415.7,286047009.8,N
1508539435.5,286047012.7,Y
1508539455.3,286047008.4,P
1508539475.2,286047008.0,P
1508539495.9,286047007.3,P
1508539515.7,286047007.1,Y
1508539535.6,286047000.5,P
1508539555.4,286047001.2,N
1508539575.2,286046995.6,N
1508539595.1,286046993.9,N
1508539596.0,286046993.9,N
1508539615.8,286046994.7,N
1508539635.6,286046990.7,N
1508539655.5,286046990.9,N
1508539675.3,286046994.5,N
1508539695.1,286046995.3,N
1508539715.9,286046995.0,N
1508539735.7,286046993.3,N
1508539755.5,286046992.0,N
1508539775.4,286046992.7,N
1508539795.2,286046994.3,N
1508539815.0,286046990.2,N
1508539815.9,286046990.2,N
1508539835.8,286046991.6,N
1508539855.6,286046991.2,N
1508539875.4,286046993.1,N
1508539895.2,286046988.1,N
1508539915.1,286046986.5,Y
1508539916.0,286046986.5,P
1508539935.8,286046989.4,N
1508539955.7,286046985.8,P
1508539975.5,286046981.1,Y
1508539995.3,286046991.4,P
1508540015.2,286046988.5,P
1508540035.9,286046991.6,P
1508540055.7,286046987.6,Y
1508540075.6,286046995.9,P
1508540095.4,286046993.4,N
1508540115.2,286046997.6,N
1508540135.1,286046999.3,N
1508540136.0,286046999.3,N
1508540155.8,286046996.5,N
1508540175.6,286046999.6,N
1508540195.5,286046996.8,N
1508540215.3,286046995.4,N
1508540235.1,286046997.7,N
1508540255.8,286046993.7,N
1508540275.7,286046993.8,N
1508540295.5,286046996.3,N
1508540315.3,286046997.6,N
1508540335.2,286046997.4,N
1508540355.0,286046996.4,N
1508540355.9,286046996.4,N
1508540375.7,286046998.0,N
1508540395.6,286046996.8,N
